This is the latest recevied weather packets stored in our database for station/object OM0XA-10. If no packets are shown the sender has not sent any weather packets the latest 10 day(s).
| Time | Temp. | Humidity | Pressure | Rain* | Wind** | Luminosity | Snow |
|---|---|---|---|---|---|---|---|
| 1777730922 | 24.44° C | 37% | 1025.3 hPa | - | - | - | - |
| 1777730022 | 24.44° C | 37% | 1025.5 hPa | - | - | - | - |
| 1777729122 | 24.44° C | 37% | 1025.5 hPa | - | - | - | - |
| 1777728222 | 24.44° C | 37% | 1025.6 hPa | - | - | - | - |
| 1777727322 | 25° C | 37% | 1025.8 hPa | - | - | - | - |
| 1777726422 | 25° C | 37% | 1026 hPa | - | - | - | - |
| 1777725522 | 25° C | 36% | 1026.1 hPa | - | - | - | - |
| 1777724621 | 24.44° C | 37% | 1026.3 hPa | - | - | - | - |
| 1777723721 | 24.44° C | 37% | 1026.3 hPa | - | - | - | - |
| 1777722821 | 24.44° C | 37% | 1026.3 hPa | - | - | - | - |
| 1777721921 | 24.44° C | 37% | 1026.5 hPa | - | - | - | - |
| 1777721021 | 24.44° C | 38% | 1026.6 hPa | - | - | - | - |
| 1777720121 | 24.44° C | 37% | 1026.8 hPa | - | - | - | - |
| 1777719221 | 24.44° C | 38% | 1026.9 hPa | - | - | - | - |
| 1777718321 | 23.89° C | 38% | 1027 hPa | - | - | - | - |
| 1777717421 | 23.89° C | 38% | 1027.1 hPa | - | - | - | - |
| 1777716521 | 23.89° C | 38% | 1027.2 hPa | - | - | - | - |
| 1777715620 | 23.33° C | 38% | 1027.3 hPa | - | - | - | - |
| 1777714720 | 23.33° C | 38% | 1027.6 hPa | - | - | - | - |
| 1777713820 | 22.78° C | 42% | 1027.6 hPa | - | - | - | - |
| 1777712920 | 22.78° C | 38% | 1027.7 hPa | - | - | - | - |
| 1777712020 | 22.78° C | 38% | 1027.8 hPa | - | - | - | - |
| 1777711120 | 22.22° C | 38% | 1027.8 hPa | - | - | - | - |
| 1777710220 | 22.22° C | 38% | 1027.9 hPa | - | - | - | - |
| 1777709320 | 22.22° C | 39% | 1027.8 hPa | - | - | - | - |
* Rain since midnight (hover to see other rain measurements)
** Current wind speed in m/s (hover to see current wind gust speed)